Flag for Greenland Weather past 2 weeks in Qaanaaq, Greenland

Now
39 °F

Low clouds.


Feels Like: 34 °F
Forecast: 35 / 38 °F
Wind: 8 mph from Northwest

Location: Thule A. B.

Current Time: Jul 23, 2014 at 3:11:43 PM

Latest Report: Jul 23, 2014 at 1:58 PM


Visibility: N/A

Pressure: 29.82 "Hg

Humidity: 81%

Dew point: 34 °F

Location of QaanaaqLocation

Historic Weather in Qaanaaq — Graph

°F

Qaanaaq temperature yesterday

Maximum temperature yesterday: 52 °F (at 11:58 AM)
Minimum temperature yesterday: 41 °F (at 9:58 PM)
Average temperature yesterday: 46 °F

Past Weeks' High & Low Weather Summary

 TemperatureHumidityPressure
High55 °F (Jul 20, 9:58 AM)93% (Jul 9, 2:03 AM)30.07 "Hg (Jul 9, 2:03 AM)
Low36 °F (Jul 15, 8:58 PM)36% (Jul 20, 9:58 AM)29.38 "Hg (Jul 21, 2:58 AM)
Average44 °F75%29.76 "Hg
* Reported Jul 8 1:58 PM — Jul 23 1:58 PM, Qaanaaq, Weather by CustomWeather, © 2014

Note: Actual official high and low records may vary slightly from our data, if they occured in-between our weather recording intervals... More about our weather records

Advertising

Qaanaaq weather history for previous 24 hours

 ConditionsComfort  
Time TempWeatherWind HumidityBarometerVisibility
1:58 PM
Jul 23
39 °FLow clouds.8 mph81%29.82 "HgN/A
12:58 PM37 °FOvercast.1 mph87%29.82 "HgN/A
11:58 AM39 °FMostly cloudy.10 mph81%29.81 "HgN/A
10:59 AM37 °FLow clouds.8 mph87%29.86 "HgN/A
9:58 AM39 °FOvercast.15 mph87%29.79 "HgN/A
8:58 AM46 °FOvercast.14 mph71%29.78 "HgN/A
7:58 AM43 °FOvercast.15 mph81%29.76 "HgN/A
7:04 AM39 °FScattered clouds.7 mph81%29.81 "Hg1 mi
7:03 AM39 °FScattered clouds.7 mph87%29.81 "Hg2 mi
3:58 AM37 °FFog.6 mph87%29.71 "Hg5 mi
2:58 AM43 °FLow clouds.2 mph81%29.68 "HgN/A
1:58 AM43 °FLow clouds.1 mph87%29.67 "HgN/A
12:58 AM43 °FSunny.No wind87%29.65 "HgN/A
11:58 PM
Jul 22
41 °FLow clouds.1 mph87%29.64 "HgN/A
10:58 PM44 °FScattered clouds.5 mph78%29.63 "HgN/A
9:58 PM41 °FOvercast.1 mph87%29.64 "HgN/A
Weather by CustomWeather, © 2014

See weather overviewHow to use our weather pages